When you browse on this site, cookies collect data to enhance your experience and personalize the content and advertising you see.
Visit our Privacy Policy to learn more. By continuing to use the site, you agree to this use of cookies and data.
  • en France
  • Liste des pays
  • À 7 jours
  • Température de l'eau
  • Carte météo
  • Widgets météo
  • user-avatar
    Se connecter

    Météo par heure à Gedaref

    Ce jour, 22 Août, Jeudi

    Heure Température Précipitation Vent Pression Humidité
    00:00 +29°C° 0 mm 3 m/s 710 mmHg 76%
    01:00 +28°C° 0 mm 4 m/s 709 mmHg 78%
    02:00 +27°C° 0 mm 5 m/s 709 mmHg 82%
    03:00 +26°C° 0 mm 4 m/s 709 mmHg 83%
    04:00 +26°C° 0 mm 4 m/s 709 mmHg 83%
    05:00 +25°C° 0 mm 3 m/s 709 mmHg 83%
    06:00 +26°C° 0.2 mm 4 m/s 710 mmHg 82%
    07:00 +26°C° 0.2 mm 5 m/s 710 mmHg 80%
    08:00 +27°C° 0 mm 5 m/s 711 mmHg 78%
    09:00 +28°C° 0.4 mm 5 m/s 711 mmHg 73%
    10:00 +30°C° 0.4 mm 4 m/s 711 mmHg 67%
    11:00 +32°C° 0.4 mm 4 m/s 712 mmHg 61%
    12:00 +33°C° 0 mm 4 m/s 711 mmHg 59%
    13:00 +34°C° 0 mm 4 m/s 710 mmHg 56%
    14:00 +34°C° 0 mm 4 m/s 710 mmHg 54%
    15:00 +34°C° 0 mm 4 m/s 710 mmHg 55%
    16:00 +34°C° 0 mm 3 m/s 709 mmHg 56%
    17:00 +34°C° 0 mm 3 m/s 709 mmHg 57%
    18:00 +32°C° 0.1 mm 2 m/s 710 mmHg 61%
    19:00 +31°C° 0.1 mm 2 m/s 710 mmHg 64%
    20:00 +30°C° 0.1 mm 1 m/s 710 mmHg 68%
    21:00 +28°C° 2.4 mm 3 m/s 711 mmHg 75%
    22:00 +26°C° 2.4 mm 5 m/s 711 mmHg 83%
    23:00 +23°C° 2.4 mm 6 m/s 711 mmHg 91%

    Demain, 23 Août, Vendredi

    Heure Température Précipitation Vent Pression Humidité
    00:00 +23°C° 4.4 mm 6 m/s 711 mmHg 88%
    01:00 +23°C° 4.4 mm 5 m/s 711 mmHg 86%
    02:00 +23°C° 4.4 mm 5 m/s 711 mmHg 84%
    03:00 +23°C° 0 mm 5 m/s 710 mmHg 86%
    04:00 +23°C° 0 mm 5 m/s 710 mmHg 88%
    05:00 +22°C° 0 mm 6 m/s 710 mmHg 91%
    06:00 +23°C° 0 mm 6 m/s 711 mmHg 89%
    07:00 +23°C° 0 mm 6 m/s 711 mmHg 86%
    08:00 +24°C° 0 mm 6 m/s 711 mmHg 84%
    09:00 +26°C° 0 mm 6 m/s 712 mmHg 81%
    10:00 +27°C° 0 mm 5 m/s 712 mmHg 78%
    11:00 +28°C° 0 mm 5 m/s 712 mmHg 74%
    12:00 +29°C° 0 mm 5 m/s 712 mmHg 71%
    13:00 +30°C° 0 mm 4 m/s 711 mmHg 69%
    14:00 +30°C° 0 mm 4 m/s 711 mmHg 66%
    15:00 +30°C° 0 mm 4 m/s 711 mmHg 68%
    16:00 +30°C° 0 mm 4 m/s 711 mmHg 70%
    17:00 +29°C° 0 mm 4 m/s 711 mmHg 72%
    18:00 +29°C° 1.1 mm 4 m/s 711 mmHg 75%
    19:00 +28°C° 1.1 mm 4 m/s 712 mmHg 78%
    20:00 +27°C° 1.1 mm 4 m/s 712 mmHg 80%
    21:00 +26°C° 2 mm 4 m/s 712 mmHg 83%
    22:00 +26°C° 2 mm 5 m/s 713 mmHg 85%
    23:00 +24°C° 2 mm 6 m/s 713 mmHg 88%

    Après-demain, 24 Août, Samedi

    Heure Température Précipitation Vent Pression Humidité
    00:00 +23°C° 2.5 mm 5 m/s 713 mmHg 89%
    01:00 +23°C° 2.5 mm 4 m/s 712 mmHg 91%
    02:00 +23°C° 2.5 mm 4 m/s 712 mmHg 92%
    03:00 +22°C° 0.2 mm 4 m/s 712 mmHg 91%
    04:00 +22°C° 0.2 mm 5 m/s 712 mmHg 90%
    05:00 +22°C° 0.2 mm 6 m/s 712 mmHg 89%
    06:00 +23°C° 0 mm 5 m/s 712 mmHg 88%
    07:00 +23°C° 0 mm 5 m/s 713 mmHg 86%
    08:00 +23°C° 0 mm 4 m/s 713 mmHg 85%
    09:00 +25°C° 0 mm 4 m/s 713 mmHg 82%
    10:00 +26°C° 0 mm 4 m/s 714 mmHg 78%
    11:00 +27°C° 0 mm 4 m/s 714 mmHg 75%
    12:00 +28°C° 0 mm 5 m/s 713 mmHg 71%
    13:00 +29°C° 0 mm 5 m/s 713 mmHg 68%
    14:00 +30°C° 0 mm 5 m/s 712 mmHg 65%
    15:00 +29°C° 0 mm 4 m/s 712 mmHg 66%
    16:00 +29°C° 0 mm 4 m/s 712 mmHg 67%
    17:00 +29°C° 0 mm 3 m/s 711 mmHg 69%
    18:00 +28°C° 0 mm 3 m/s 711 mmHg 73%
    19:00 +27°C° 0 mm 3 m/s 712 mmHg 77%
    20:00 +26°C° 0 mm 2 m/s 712 mmHg 80%
    21:00 +26°C° 0 mm 2 m/s 712 mmHg 81%
    22:00 +26°C° 0 mm 2 m/s 712 mmHg 82%
    23:00 +26°C° 0 mm 3 m/s 712 mmHg 83%

    25 Août, Dimanche

    Heure Température Précipitation Vent Pression Humidité
    00:00 +25°C° 0.7 mm 2 m/s 712 mmHg 84%
    01:00 +25°C° 0.7 mm 2 m/s 712 mmHg 85%
    02:00 +25°C° 0.7 mm 2 m/s 712 mmHg 86%
    03:00 +25°C° 0.4 mm 2 m/s 712 mmHg 87%
    04:00 +24°C° 0.4 mm 2 m/s 711 mmHg 87%
    05:00 +24°C° 0.4 mm 2 m/s 711 mmHg 87%
    06:00 +25°C° 0 mm 3 m/s 712 mmHg 83%
    07:00 +26°C° 0 mm 3 m/s 712 mmHg 78%
    08:00 +27°C° 0 mm 3 m/s 713 mmHg 73%
    09:00 +28°C° 0 mm 3 m/s 713 mmHg 71%
    10:00 +29°C° 0 mm 3 m/s 713 mmHg 69%
    11:00 +29°C° 0 mm 3 m/s 713 mmHg 66%
    12:00 +30°C° 0 mm 3 m/s 712 mmHg 63%
    13:00 +31°C° 0 mm 3 m/s 712 mmHg 60%
    14:00 +33°C° 0 mm 3 m/s 711 mmHg 57%
    15:00 +33°C° 0 mm 3 m/s 711 mmHg 58%
    16:00 +32°C° 0 mm 2 m/s 710 mmHg 59%
    17:00 +31°C° 0 mm 2 m/s 710 mmHg 60%
    18:00 +30°C° 0.3 mm 2 m/s 710 mmHg 64%
    19:00 +29°C° 0.3 mm 3 m/s 711 mmHg 69%
    20:00 +28°C° 0.3 mm 3 m/s 711 mmHg 73%
    21:00 +27°C° 1.5 mm 4 m/s 711 mmHg 76%
    22:00 +27°C° 1.5 mm 5 m/s 712 mmHg 78%
    23:00 +26°C° 1.5 mm 6 m/s 712 mmHg 81%

    26 Août, Lundi

    Heure Température Précipitation Vent Pression Humidité
    00:00 +25°C° 1.5 mm 5 m/s 711 mmHg 81%
    01:00 +25°C° 1.5 mm 4 m/s 711 mmHg 81%
    02:00 +24°C° 1.5 mm 3 m/s 710 mmHg 82%
    03:00 +24°C° 0.1 mm 3 m/s 710 mmHg 79%
    04:00 +23°C° 0.1 mm 4 m/s 710 mmHg 77%
    05:00 +25°C° 0.1 mm 4 m/s 710 mmHg 74%
    06:00 +25°C° 0 mm 4 m/s 711 mmHg 74%
    07:00 +25°C° 0 mm 3 m/s 711 mmHg 74%
    08:00 +26°C° 0 mm 2 m/s 712 mmHg 74%
    09:00 +27°C° 0 mm 3 m/s 712 mmHg 71%
    10:00 +29°C° 0 mm 3 m/s 712 mmHg 67%
    11:00 +30°C° 0 mm 4 m/s 712 mmHg 63%
    12:00 +32°C° 0 mm 4 m/s 712 mmHg 60%
    13:00 +33°C° 0 mm 3 m/s 711 mmHg 57%
    14:00 +33°C° 0 mm 3 m/s 711 mmHg 54%
    15:00 +33°C° 0 mm 3 m/s 710 mmHg 56%
    16:00 +32°C° 0 mm 2 m/s 710 mmHg 57%
    17:00 +32°C° 0 mm 2 m/s 710 mmHg 59%
    18:00 +31°C° 0 mm 2 m/s 710 mmHg 63%
    19:00 +29°C° 0 mm 2 m/s 711 mmHg 67%
    20:00 +28°C° 0 mm 3 m/s 711 mmHg 71%
    21:00 +28°C° 0 mm 3 m/s 711 mmHg 73%
    22:00 +27°C° 0 mm 3 m/s 711 mmHg 76%
    23:00 +27°C° 0 mm 3 m/s 711 mmHg 78%

    27 Août, Mardi

    Heure Température Précipitation Vent Pression Humidité
    00:00 +27°C° 0.1 mm 4 m/s 711 mmHg 78%
    01:00 +27°C° 0.1 mm 5 m/s 711 mmHg 78%
    02:00 +26°C° 0.1 mm 5 m/s 710 mmHg 78%
    03:00 +26°C° 0.1 mm 5 m/s 710 mmHg 80%
    04:00 +26°C° 0.1 mm 5 m/s 710 mmHg 81%
    05:00 +25°C° 0.1 mm 5 m/s 711 mmHg 82%
    06:00 +26°C° 0 mm 5 m/s 711 mmHg 79%
    07:00 +27°C° 0 mm 4 m/s 712 mmHg 76%
    08:00 +27°C° 0 mm 3 m/s 712 mmHg 73%
    09:00 +29°C° 0 mm 4 m/s 712 mmHg 68%
    10:00 +30°C° 0 mm 4 m/s 712 mmHg 63%
    11:00 +32°C° 0 mm 4 m/s 712 mmHg 58%
    12:00 +33°C° 0 mm 4 m/s 712 mmHg 55%
    13:00 +34°C° 0 mm 4 m/s 712 mmHg 52%
    14:00 +34°C° 0 mm 4 m/s 711 mmHg 49%
    15:00 +34°C° 0 mm 3 m/s 711 mmHg 52%
    16:00 +33°C° 0 mm 3 m/s 711 mmHg 54%
    17:00 +33°C° 0 mm 3 m/s 711 mmHg 57%
    18:00 +31°C° 0 mm 3 m/s 711 mmHg 63%
    19:00 +29°C° 0 mm 4 m/s 711 mmHg 68%
    20:00 +28°C° 0 mm 5 m/s 711 mmHg 74%
    21:00 +28°C° 0.2 mm 5 m/s 712 mmHg 77%
    22:00 +27°C° 0.2 mm 5 m/s 712 mmHg 80%
    23:00 +26°C° 0.2 mm 5 m/s 712 mmHg 82%
    Voir plus